Home > Weather > Taiyuan > Past weeks

Flag for China Past Weather in Taiyuan, Shanxi, China — Yesterday and Last 2 Weeks

Now
90 °F

Passing clouds.


Feels Like: 95 °F
Forecast: 69 / 90 °F
Wind: 3 mph from Southwest

Location: Taiyuan Airport

Current Time: Jul 30, 2016 at 1:35:35 PM

Latest Report: Jul 30, 2016 at 1:00 PM


Visibility: N/A

Pressure: 29.86 "Hg (27.33 "Hg at 790m altitude)

Humidity: 52%

Dew Point: 70 °F

Location of TaiyuanLocation

Past Weather in Taiyuan — Graph

°F

Taiyuan Temperature Yesterday

Maximum temperature yesterday: 93 °F (at 2:00 PM)
Minimum temperature yesterday: 70 °F (at 4:30 AM)
Average temperature yesterday: 82 °F

High & Low Weather Summary for the Past Weeks

 TemperatureHumidityPressure
High93 °F (Jul 24, 3:00 PM)100% (Jul 19, 2:00 AM)29.92 "Hg (Jul 19, 2:00 AM)
Low63 °F (Jul 17, 4:00 AM)35% (Jul 27, 9:00 PM)29.56 "Hg (Jul 20, 3:00 PM)
Average75 °F76%29.73 "Hg
* Reported Jul 15 12:00 PM — Jul 30 12:30 PM, Taiyuan, Weather by CustomWeather, © 2016

Note: Actual official high and low records may vary slightly from our data, if they occured in-between our weather recording intervals... More about our weather records

Advertising

Taiyuan Weather History for the Previous 24 Hours

Scroll right to see more
 ConditionsComfort  
Time TempWeatherWind HumidityBarometerVisibility
12:30 PM
Sat, Jul 30
90 °FSunny.3 mph49%29.89 "Hg10 mi
12:00 PM88 °FSunny.1 mph52%29.89 "Hg10 mi
11:30 AM88 °FSunny.1 mph59%29.89 "Hg10 mi
11:00 AM88 °FSunny.1 mph55%29.92 "Hg10 mi
10:30 AM86 °FClear.1 mph59%29.92 "Hg5 mi
10:00 AM82 °FClear.3 mph66%29.92 "Hg4 mi
9:30 AM82 °FHaze.1 mph66%29.92 "Hg3 mi
9:00 AM81 °FHaze.1 mph66%29.92 "Hg3 mi
8:30 AM79 °FHaze.1 mph70%29.89 "Hg2 mi
8:00 AM79 °FFog.1 mph70%29.89 "Hg2 mi
7:30 AM77 °FFog.6 mph79%29.89 "Hg2 mi
7:00 AM77 °FFog.1 mph74%29.89 "Hg2 mi
6:30 AM73 °FFog.1 mph83%29.86 "Hg1 mi
6:00 AM72 °FFog.1 mph88%29.86 "Hg2 mi
5:30 AM72 °FFog.1 mph88%29.86 "Hg2 mi
5:00 AM75 °FFog.6 mph78%29.86 "Hg2 mi
4:30 AM73 °FFog.3 mph83%29.86 "Hg2 mi
4:00 AM75 °FFog.1 mph78%29.83 "Hg2 mi
3:30 AM75 °FFog.1 mph78%29.83 "Hg2 mi
3:00 AM75 °FHaze.6 mph78%29.86 "Hg2 mi
2:30 AM75 °FHaze.6 mph83%29.86 "Hg2 mi
2:00 AM77 °FHaze.6 mph79%29.86 "Hg2 mi
1:30 AM77 °FHaze.3 mph79%29.86 "Hg2 mi
1:00 AM79 °FClear.8 mph74%29.86 "Hg4 mi
12:30 AM79 °FClear.10 mph74%29.86 "Hg4 mi
12:00 AM79 °FClear.8 mph79%29.86 "Hg4 mi
11:30 PM
Fri, Jul 29
81 °FClear.8 mph70%29.86 "Hg4 mi
11:00 PM79 °FClear.10 mph74%29.83 "Hg4 mi
10:30 PM81 °FClear.8 mph70%29.83 "Hg10 mi
10:00 PM81 °FPassing clouds.10 mph74%29.83 "HgN/A
9:30 PM81 °FPassing clouds.8 mph74%29.80 "HgN/A
9:00 PM82 °FPassing clouds.8 mph70%29.80 "HgN/A
8:30 PM82 °FPassing clouds.10 mph70%29.77 "HgN/A
8:00 PM84 °FPassing clouds.8 mph55%29.77 "HgN/A
7:30 PM86 °FPassing clouds.8 mph52%29.77 "HgN/A
7:00 PM88 °FThunderstorms. Passing clouds.8 mph49%29.74 "HgN/A
6:30 PM88 °FSunny.3 mph59%29.74 "Hg10 mi
6:00 PM90 °FSunny.8 mph52%29.74 "Hg10 mi
5:30 PM93 °FSunny.1 mph49%29.74 "Hg10 mi
5:00 PM93 °FPassing clouds.3 mph44%29.74 "HgN/A
4:30 PM93 °FPassing clouds.3 mph47%29.74 "HgN/A
4:00 PM93 °FPassing clouds.3 mph44%29.74 "HgN/A
3:30 PM93 °FPassing clouds.1 mph44%29.74 "HgN/A
3:00 PM93 °FPassing clouds.3 mph41%29.74 "HgN/A
2:30 PM93 °FPassing clouds.3 mph44%29.74 "HgN/A
2:00 PM93 °FPassing clouds.1 mph47%29.74 "HgN/A
1:30 PM91 °FSunny.1 mph46%29.77 "Hg10 mi
1:00 PM90 °FSunny.3 mph52%29.77 "Hg10 mi
Weather by CustomWeather, © 2016

See weather overviewHow to use our weather pages